This demonstration page uses our WeatherBlox Daily Observations layout. Learn more.

Left ArrowRight Arrow

Hourly Observations for August 15, 2020

Temp ( °F °C ) Dew Point ( °F °C ) Humidity (%) Winds ( mph kmh ) Pressure ( in mb ) Visibility ( mi km ) Precip ( " mm )
12:15 am 00:15 Clear 66 19 66 19 100 100 Calm 29.96 1015 10 16.0934 N/A
12:35 am 00:35 Partly Cloudy 66 19 66 19 100 100 NE 5 7 29.96 1015 10 16.0934 N/A
12:55 am 00:55 Partly Cloudy 66 19 66 19 100 100 E 5 7 29.96 1015 10 16.0934 N/A
1:15 am 01:15 Mostly Cloudy 66 19 66 19 100 100 Calm 29.96 1015 10 16.0934 N/A
1:35 am 01:35 Partly Cloudy 66 19 66 19 100 100 Calm 29.96 1015 10 16.0934 N/A
1:55 am 01:55 Clear 64 18 64 18 100 100 Calm 29.95 1014 10 16.0934 N/A
2:15 am 02:15 Clear 64 18 64 18 100 100 Calm 29.94 1014 10 16.0934 N/A
2:35 am 02:35 Clear 63 17 63 17 100 100 E 3 6 29.94 1014 10 16.0934 N/A
2:55 am 02:55 Clear 64 18 64 18 100 100 E 3 6 29.94 1014 10 16.0934 N/A
3:15 am 03:15 Clear 63 17 63 17 100 100 Calm 29.95 1014 10 16.0934 N/A
3:35 am 03:35 Clear 63 17 63 17 100 100 Calm 29.94 1014 10 16.0934 N/A
3:55 am 03:55 Clear 63 17 63 17 100 100 NNE 3 6 29.94 1014 10 16.0934 N/A
4:15 am 04:15 Clear 63 17 63 17 100 100 E 3 6 29.93 1013 7 11.26538 N/A
4:35 am 04:35 Clear 63 17 63 17 100 100 E 3 6 29.93 1013 7 11.26538 N/A
4:55 am 04:55 Clear 63 17 63 17 100 100 E 3 6 29.92 1013 7 11.26538 N/A
5:15 am 05:15 Clear 63 17 63 17 100 100 Calm 29.91 1013 7 11.26538 N/A
5:35 am 05:35 Clear 63 17 63 17 100 100 NW 5 7 29.93 1013 7 11.26538 N/A
5:55 am 05:55 Clear 63 17 63 17 100 100 Calm 29.93 1013 7 11.26538 N/A
6:15 am 06:15 Clear 61 16 61 16 100 100 NE 3 6 29.94 1014 4 6.43736 N/A
6:35 am 06:35 Clear 61 16 61 16 100 100 Calm 29.95 1014 5 8.0467 N/A
6:55 am 06:55 Clear 63 17 63 17 100 100 NNE 3 6 29.95 1014 7 11.26538 N/A
7:15 am 07:15 Sunny 63 17 63 17 100 100 E 3 6 29.95 1014 5 8.0467 N/A
7:35 am 07:35 Sunny 63 17 63 17 100 100 Calm 29.96 1014 10 16.0934 N/A
7:55 am 07:55 Sunny 64 18 64 18 100 100 E 3 6 29.95 1014 10 16.0934 N/A
8:15 am 08:15 Sunny 66 19 66 19 100 100 Calm 29.96 1015 10 16.0934 N/A
8:35 am 08:35 Sunny 68 20 68 20 100 100 Calm 29.96 1014 10 16.0934 N/A
8:55 am 08:55 Sunny 68 20 68 20 100 100 ENE 5 7 29.95 1014 10 16.0934 N/A
9:15 am 09:15 Sunny 70 21 70 21 100 100 ESE 3 6 29.95 1014 10 16.0934 N/A
9:35 am 09:35 Sunny 72 22 72 22 100 100 E 5 7 29.94 1014 10 16.0934 N/A
9:55 am 09:55 Sunny 73 23 73 23 100 100 Calm 29.94 1014 10 16.0934 N/A
10:15 am 10:15 Sunny 73 23 73 23 100 100 Calm 29.93 1014 10 16.0934 N/A
10:35 am 10:35 Sunny 75 24 73 23 94 94 Calm 29.93 1013 10 16.0934 N/A
10:55 am 10:55 Sunny 75 24 73 23 94 94 Calm 29.95 1014 10 16.0934 N/A
11:15 am 11:15 Sunny 77 25 73 23 89 89 Calm 29.94 1014 10 16.0934 N/A
11:35 am 11:35 Sunny 77 25 73 23 89 89 Calm 29.94 1014 10 16.0934 N/A
11:55 am 11:55 Sunny 79 26 73 23 84 84 Calm 29.94 1014 10 16.0934 N/A
12:15 pm 12:15 Sunny 79 26 75 24 89 89 Calm 29.95 1014 10 16.0934 N/A
12:35 pm 12:35 Sunny 81 27 75 24 84 84 Calm 29.94 1014 10 16.0934 N/A
12:55 pm 12:55 Sunny 81 27 73 23 79 79 Calm 29.94 1014 10 16.0934 N/A
1:15 pm 13:15 Sunny 81 27 73 23 79 79 Calm 29.94 1014 10 16.0934 N/A
1:35 pm 13:35 Sunny 82 28 73 23 74 74 Calm 29.93 1014 10 16.0934 N/A
1:55 pm 13:55 Sunny 82 28 73 23 74 74 Calm 29.92 1013 10 16.0934 N/A
2:15 pm 14:15 Sunny 84 29 75 24 74 74 Calm 29.92 1013 10 16.0934 N/A
2:35 pm 14:35 Partly Cloudy 84 29 73 23 70 70 Calm 29.91 1013 10 16.0934 N/A
2:55 pm 14:55 Partly Cloudy 82 28 73 23 74 74 Calm 29.91 1013 10 16.0934 N/A
3:15 pm 15:15 Sunny 82 28 75 24 79 79 ENE 5 7 29.9 1013 10 16.0934 N/A
3:35 pm 15:35 Sunny 84 29 75 24 74 74 Calm 29.89 1012 10 16.0934 N/A
3:55 pm 15:55 Sunny 84 29 73 23 70 70 Calm 29.89 1012 10 16.0934 N/A
4:15 pm 16:15 Sunny 86 30 73 23 66 66 Calm 29.88 1012 10 16.0934 N/A
4:35 pm 16:35 Sunny 84 29 75 24 74 74 Calm 29.87 1012 10 16.0934 N/A
4:55 pm 16:55 Sunny 86 30 73 23 66 66 Calm 29.87 1011 10 16.0934 N/A
5:15 pm 17:15 Sunny 84 29 75 24 74 74 Calm 29.87 1012 10 16.0934 N/A
5:35 pm 17:35 Sunny 84 29 75 24 74 74 E 3 6 29.87 1012 10 16.0934 N/A
5:55 pm 17:55 Sunny 84 29 75 24 74 74 Calm 29.87 1012 10 16.0934 N/A
6:15 pm 18:15 Sunny 86 30 75 24 70 70 NE 3 6 29.87 1011 10 16.0934 N/A
6:35 pm 18:35 Sunny 82 28 77 25 84 84 E 3 6 29.87 1012 10 16.0934 N/A
6:55 pm 18:55 Sunny 82 28 77 25 84 84 Calm 29.87 1012 10 16.0934 N/A
7:15 pm 19:15 Sunny 82 28 75 24 79 79 Calm 29.87 1012 10 16.0934 N/A
7:35 pm 19:35 Sunny 81 27 79 26 94 94 Calm 29.87 1011 10 16.0934 N/A
7:55 pm 19:55 Partly Cloudy 79 26 79 26 100 100 Calm 29.88 1012 10 16.0934 N/A
8:15 pm 20:15 Mostly Cloudy 77 25 77 25 100 100 Calm 29.88 1012 10 16.0934 N/A
8:35 pm 20:35 Mostly Cloudy 77 25 77 25 100 100 Calm 29.89 1012 10 16.0934 N/A
8:55 pm 20:55 Mostly Cloudy 77 25 77 25 100 100 Calm 29.89 1012 10 16.0934 N/A
9:15 pm 21:15 Mostly Cloudy 77 25 77 25 100 100 Calm 29.9 1013 10 16.0934 N/A
9:35 pm 21:35 Mostly Cloudy 75 24 75 24 100 100 Calm 29.91 1013 10 16.0934 N/A
9:55 pm 21:55 Mostly Cloudy 75 24 75 24 100 100 Calm 29.93 1013 10 16.0934 N/A
10:15 pm 22:15 Partly Cloudy 75 24 75 24 100 100 Calm 29.93 1013 10 16.0934 N/A
10:35 pm 22:35 Mostly Cloudy 73 23 73 23 100 100 Calm 29.93 1014 10 16.0934 N/A
10:55 pm 22:55 Cloudy 72 22 72 22 100 100 Calm 29.93 1014 10 16.0934 N/A
11:15 pm 23:15 Mostly Cloudy 73 23 73 23 100 100 Calm 29.91 1013 10 16.0934 N/A
11:35 pm 23:35 Mostly Cloudy 73 23 73 23 100 100 Calm 29.91 1013 10 16.0934 N/A
11:55 pm 23:55 Mostly Cloudy 73 23 73 23 100 100 NW 5 7 29.93 1014 10 16.0934 N/A

Powered by AerisWeather